Regional Weather Roundup
Issued by NWS

Home | Current Version | Previous Version | Text Only | Print | Product List | Glossary On
Versions: 1 2 3 4 5 6 7 8 9 10 11 12 13 14 15 16 17 18 19 20 21 22 23 24 25 26 27 28 29 30 31 32 33 34 35 36 37 38 39 40 41 42 43 44 45 46 47 48 49 50
000
ASUS45 KPSR 240910
RWRAZ

ARIZONA HOURLY REGIONAL WEATHER ROUNDUP
NATIONAL WEATHER SERVICE PHOENIX AZ
200 AM MST TUE JAN 24 2017

NOTE: FAIR INDICATES FEW OR NO CLOUDS BELOW 12,000 FEET WITH NO
SIGNIFICANT WEATHER AND/OR OBSTRUCTIONS TO VISIBILITY.

AZZ001>003-036-241000-
NORTHWEST ARIZONA

CITY           SKY/WX    TMP DP  RH WIND       PRES   REMARKS
BULLHEAD CITY  MOCLDY    48  34  57 SE9       29.80R
KINGMAN        CLOUDY    35  31  85 SW7       29.75R WCI  29
$$

AZZ004>008-015-016-018-241000-
NORTH CENTRAL ARIZONA

CITY           SKY/WX    TMP DP  RH WIND       PRES   REMARKS
GRAND CANYON   CLOUDY    24  24 100 SW13      29.65R WCI  12
WILLIAMS       SNOW      25  23  93 W13       29.66R VSB 1/4 WCI  13
PRESCOTT       CLOUDY    32  28  85 CALM      29.72R
FLAGSTAFF      LGT SNOW  24  22  91 W9G17     29.64R VSB 3/4 WCI  14
PAYSON         CLOUDY    32  30  93 SW8G15    29.75S WCI  25
PAGE           CLOUDY    35  25  66 NW7       29.62S WCI  29
$$

AZZ009>014-017-241000-
NORTHEAST ARIZONA

CITY           SKY/WX    TMP DP  RH WIND       PRES   REMARKS
WINSLOW        CLOUDY    32  32 100 CALM      29.68R
SAINT JOHNS    CLOUDY    33  31  92 W15G23    29.65F WCI  23
SHOW LOW       SNOW      28  27  93 SW7       29.69R VSB 1/2 WCI  21
$$

AZZ023-241000-
GREATER PHOENIX AREA

CITY           SKY/WX    TMP DP  RH WIND       PRES   REMARKS
PHOENIX        MOCLDY    49  42  77 W7        29.81R
BUCKEYE        CLEAR     41  41 100 CALM      29.83R
LUKE AFB       CLEAR     47  42  83 SW8       29.80R
DEER VALLEY    MOCLDY    45  43  93 S8        29.80R
SCOTTSDALE     MOCLDY    48  41  76 SW6       29.82R
MESA-GATEWAY   CLOUDY    46  41  81 SW8       29.83R
$$

AZZ027-028-241000-
SOUTHWEST MARICOPA COUNTY AND PINAL COUNTY

CITY           SKY/WX    TMP DP  RH WIND       PRES   REMARKS
CASA GRANDE    MOCLDY    47  43  86 SW9       29.84R
GILA BEND      FAIR      48  36  64 SW14      29.83S
$$

AZZ503-504-507>509-241000-
SOUTHEAST ARIZONA

CITY           SKY/WX    TMP DP  RH WIND       PRES   REMARKS
TUCSON         CLOUDY    45  39  79 SW12      29.88R
DAVIS-MONTHAN  MOCLDY    44  39  84 W7        29.86S
NOGALES        LGT RAIN  41  38  89 CALM      29.86F
SIERRA VISTA   PTCLDY    39  32  75 W20G31    29.82R WCI  30
DOUGLAS        CLEAR     45  32  60 W20G30    29.82S
SAFFORD        CLOUDY    42  39  89 NW18      29.76R
$$

AZZ020-021-025-026-031-241000-
SOUTHWEST ARIZONA

CITY           SKY/WX    TMP DP  RH WIND       PRES   REMARKS
YUMA           CLEAR     47  36  65 CALM      29.87R
$$

CAZ031-033-041-043-047-048-061-241000-
SOUTHERN CALIFORNIA

CITY           SKY/WX    TMP DP  RH WIND       PRES   REMARKS
DOWNTOWN L.A.  CLEAR     45  41  86 CALM      29.92R
L.A. AIRPORT   PTCLDY    44  38  79 E7        29.93R
SAN DIEGO      MOCLDY    53  40  61 W9G21     29.97R
BURBANK        CLEAR     40  36  86 W6        29.91R
ONTARIO        MOCLDY    42  41  96 N3        29.91S
RIVERSIDE      CLOUDY    43  42  97 CALM      29.92R
PALM SPRINGS   CLEAR     41  39  93 CALM      29.84F
EL CENTRO NAS  CLEAR     49  35  58 SW13      29.89R
IMPERIAL       CLEAR     50  36  58 W14       29.86R
BLYTHE         CLEAR     45  40  82 NE3       29.83R
NEEDLES        CLEAR     46  35  65 W9        29.79S
$$

NVZ020-UTZ003-241000-
SOUTHERN NEVADA-UTAH

CITY           SKY/WX    TMP DP  RH WIND       PRES   REMARKS
LAS VEGAS      CLOUDY    42  32  67 W7        29.72S
SALT LAKE CITY CLOUDY    31  29  92 CALM      29.65R
$$

NMZ009-TXZ055-241000-
NEW MEXICO-WEST TEXAS

CITY           SKY/WX    TMP DP  RH WIND       PRES   REMARKS
ALBUQUERQUE    CLOUDY    38  32  79 NW7       29.64F WCI  33
EL PASO        PTCLDY    55  27  34 W15       29.70R
$$


........................KEY........................
SKY/WX - SKY CONDITION/WEATHER
TMP    - TEMPERATURE IN FAHRENHEIT
DP     - DEW POINT IN FAHRENHEIT
RH     - RELATIVE HUMIDITY IN PERCENT
WIND   - DIRECTION AND SPEED IN MILES PER HOUR (MPH)
VRB    - VARIABLE WIND DIRECTION
PRES   - MEAN SEA LEVEL PRESSURE IN INCHES OF MERCURY
         F - FALLING PRESSURE   R - RISING PRESSURE
         S - STEADY PRESSURE
VSB    - VISIBILITY IN MILES
HX     - HEAT INDEX IN FAHRENHEIT
WCI    - WIND CHILL INDEX IN FAHRENHEIT
TC     - TEMPERATURE IN CELSIUS WHICH IS ALSO KNOWN AS
         TEMPERATURE IN CENTIGRADE
AFB    - AIR FORCE BASE
         LUKE AFB IS LUKE AIR FORCE BASE
         DAVIS-MONTHAN IS DAVIS-MONTHAN AIR FORCE BASE
NAS    - NAVAL AIR STATION
         EL CENTRO NAS IS EL CENTRO NAVAL AIR STATION
N/A    - NOT AVAILABLE




USA.gov is the U.S. government's official web portal to all federal, state and local government web resources and services.